Location: La Pernelle
(49.6188°N, 1.2999°W)
Time: 08:06:51
(UTC+00:00)

SL-16 R/B - Pass Details

Date: 12 June 2021
Orbit: 842 x 846 km, 71.0° (Epoch: 04 August)

Event Time Altitude Azimuth Distance (km) Brightness Sun altitude
Exits shadow 20:54:25 - 174° (S) 3,431 4.9 -5.8°
Rises 20:54:33 0° 173° (S) 3,386 4.8 -5.8°
Reaches altitude 10° 20:57:15 10° 163° (SSE) 2,456 4.1 -6.1°
Maximum altitude 21:02:02 30° 105° (ESE) 1,486 3.1 -6.6°
Drops below altitude 10° 21:06:52 10° 46° (NE) 2,473 4.7 -7.1°
Sets 21:09:35 0° 36° (NE) 3,413 5.5 -7.4°
